Phuket, Thailand

3:37 PM +07 on October 20, 2018 (GMT +0700)
Phuket International

Weather History for VTSP - February, 2018

Change the Weather History Date:

Wednesday, February 14, 2018

  Actual Average Record
Temperature  
Mean Temperature 82 °F -  
Max Temperature 92 °F 91 °F 98 °F (2003)
Min Temperature 72 °F 75 °F 68 °F (2014)
Cooling Degree Days 17    
Growing Degree Days 32 (Base 50)    
Moisture  
Dew Point 70 °F    
Average Humidity 68    
Maximum Humidity 89    
Minimum Humidity 38    
Precipitation  
Precipitation 0.00 in 0.06 in - ()
Sea Level Pressure  
Sea Level Pressure 29.97 in    
Wind  
Wind Speed 5 mph ()    
Max Wind Speed 15 mph    
Max Gust Speed -    
Visibility 5.6 miles    
Events Rain    
Averages and records for this station are not official NWS values.
T = Trace of Precipitation, MM = Missing Value Source: Averaged Metar Reports

Daily Weather History Graph

Daily Weather History Graph

Search for Another Location

Airport or City:

Astronomy

Feb. 14, 2018 Rise Set
Actual Time 6:45 AM +07 6:36 PM +07
Civil Twilight 6:23 AM +07 6:58 PM +07
Nautical Twilight 5:58 AM +07 7:23 PM +07
Astronomical Twilight 5:34 AM +07 7:47 PM +07
Moon 5:24 AM +07 (2/14) 5:26 PM +07 (2/14)
Length of Visible Light 12h 34m
Length of Day
11h 51m
Waning Crescent, 3% of the Moon is Illuminated
Feb 14
Waning Crescent
Feb 16
New
Feb 23
First Quarter
Mar 2
Full
Mar 9
Last Quarter

Hourly Weather History & Observations

Time (+07) Temp. Heat Index Dew Point Humidity Pressure Visibility Wind Dir Wind Speed Gust Speed Precip Events Conditions
12:00 AM 77.0 °F - 69.8 °F 78% 30.01 in 5.0 mi Calm Calm - N/A   Scattered Clouds
12:30 AM 77.0 °F - 69.8 °F 78% 30.01 in 5.0 mi Calm Calm - N/A   Scattered Clouds
1:00 AM 78 °F - 72 °F 75% 29.97 in 6 mi Calm Calm - -   Mist
1:00 AM 77.0 °F - 69.8 °F 78% 30.01 in 5.0 mi Calm Calm - N/A   Scattered Clouds
1:30 AM 75.2 °F - 69.8 °F 83% 29.98 in 5.0 mi Variable 2.3 mph - N/A   Scattered Clouds
2:00 AM 75.2 °F - 69.8 °F 83% 29.98 in 5.0 mi Calm Calm - N/A   Scattered Clouds
2:30 AM 75.2 °F - 68.0 °F 78% 29.98 in 5.0 mi Calm Calm - N/A   Scattered Clouds
3:00 AM 73.4 °F - 69.8 °F 88% 29.98 in 5.0 mi Variable 2.3 mph - N/A   Scattered Clouds
3:30 AM 75.2 °F - 68.0 °F 78% 29.98 in 5.0 mi ESE 10.4 mph - N/A   Scattered Clouds
4:00 AM 78 °F - 70 °F 70% 29.95 in 6 mi Calm Calm - -   Sandstorm
4:00 AM 78.8 °F - 68.0 °F 69% 29.98 in 5.0 mi East 9.2 mph - N/A   Scattered Clouds
4:30 AM 78.8 °F - 69.8 °F 74% 29.98 in 5.0 mi NE 3.5 mph - N/A   Scattered Clouds
5:00 AM 77.0 °F - 69.8 °F 78% 29.98 in 5.0 mi NE 3.5 mph - N/A   Scattered Clouds
5:30 AM 77.0 °F - 69.8 °F 78% 29.98 in 5.0 mi Calm Calm - N/A   Scattered Clouds
6:00 AM 77.0 °F - 68.0 °F 74% 29.98 in 5.0 mi Calm Calm - N/A   Scattered Clouds
6:30 AM 77.0 °F - 68.0 °F 74% 29.98 in 5.0 mi Variable 1.2 mph - N/A   Scattered Clouds
7:00 AM 76 °F - 71 °F 79% 29.96 in 6 mi Calm Calm - -   Mist
7:00 AM 77.0 °F - 68.0 °F 74% 29.98 in 5.0 mi Variable 2.3 mph - N/A   Partly Cloudy
7:30 AM 77.0 °F - 69.8 °F 78% 30.01 in 5.6 mi NE 3.5 mph - N/A   Partly Cloudy
8:00 AM 77.0 °F - 69.8 °F 78% 30.01 in 5.6 mi Variable 2.3 mph - N/A   Partly Cloudy
8:30 AM 78.8 °F - 69.8 °F 74% 30.01 in 6.2 mi East 10.4 mph - N/A   Scattered Clouds
9:00 AM 80.6 °F 83.9 °F 69.8 °F 70% 30.01 in 6.2 mi East 13.8 mph - N/A   Scattered Clouds
9:30 AM 82.4 °F 86.3 °F 69.8 °F 66% 30.01 in 6.2 mi East 13.8 mph - N/A   Scattered Clouds
10:00 AM 83 °F - 71 °F 60% 30.01 in 6 mi East 5.8 mph - -   Scattered Clouds
10:00 AM 82.4 °F 85.4 °F 68.0 °F 62% 30.01 in 6.2 mi East 13.8 mph - N/A   Scattered Clouds
10:30 AM 84.2 °F 87.3 °F 68.0 °F 58% 30.01 in 6.2 mi East 15.0 mph - N/A   Partly Cloudy
11:00 AM 84.2 °F 88.4 °F 69.8 °F 62% 30.01 in 6.2 mi East 11.5 mph - N/A   Partly Cloudy
12:00 PM 86.0 °F 89.4 °F 68.0 °F 55% 29.98 in 6.2 mi East 12.7 mph - N/A   Partly Cloudy
12:30 PM 86.0 °F 89.4 °F 68.0 °F 55% 29.95 in 6.2 mi East 12.7 mph - N/A   Scattered Clouds
1:00 PM 88 °F - 69 °F 43% 29.94 in 6 mi ENE 8.1 mph - -   Scattered Clouds
1:00 PM 86.0 °F 89.4 °F 68.0 °F 55% 29.95 in 6.2 mi East 10.4 mph - N/A   Scattered Clouds
1:30 PM 87.8 °F 92.6 °F 69.8 °F 55% 29.92 in 6.2 mi East 10.4 mph - N/A   Partly Cloudy
2:00 PM 87.8 °F 91.4 °F 68.0 °F 52% 29.92 in 6.2 mi East 11.5 mph - N/A   Partly Cloudy
2:30 PM 89.6 °F 92.2 °F 66.2 °F 46% 29.89 in 6.2 mi East 13.8 mph - N/A   Partly Cloudy
3:00 PM 89.6 °F 93.4 °F 68.0 °F 49% 29.89 in 6.2 mi East 11.5 mph - N/A   Partly Cloudy
3:30 PM 89.6 °F 93.4 °F 68.0 °F 49% 29.86 in 6.2 mi East 10.4 mph - N/A   Partly Cloudy
4:00 PM 92 °F - 69 °F 38% 29.86 in 6 mi NE 3.5 mph - -   Scattered Clouds
4:00 PM 89.6 °F 93.4 °F 68.0 °F 49% 29.89 in 6.2 mi WNW 5.8 mph - N/A   Partly Cloudy
4:30 PM 89.6 °F 96.2 °F 71.6 °F 55% 29.92 in 6.2 mi NNW 6.9 mph - N/A   Partly Cloudy
5:00 PM 86.0 °F 91.8 °F 71.6 °F 62% 29.92 in 6.2 mi NW 12.7 mph - N/A   Partly Cloudy
5:30 PM 86.0 °F 91.8 °F 71.6 °F 62% 29.95 in 6.2 mi NW 12.7 mph - N/A   Partly Cloudy
6:00 PM 84.2 °F 89.6 °F 71.6 °F 66% 29.95 in 6.2 mi WNW 11.5 mph - N/A   Partly Cloudy
6:30 PM 82.4 °F 86.3 °F 69.8 °F 66% 29.95 in 6.2 mi WNW 10.4 mph - N/A   Partly Cloudy
7:00 PM 86 °F - 73 °F 58% 29.96 in 6 mi WNW 3.5 mph - -   Scattered Clouds
7:00 PM 82.4 °F 87.2 °F 71.6 °F 70% 29.95 in 5.0 mi WNW 10.4 mph - N/A   Partly Cloudy
7:30 PM 82.4 °F 87.2 °F 71.6 °F 70% 29.95 in 5.0 mi West 9.2 mph - N/A   Partly Cloudy
8:00 PM 82.4 °F 87.2 °F 71.6 °F 70% 29.98 in 5.0 mi WNW 8.1 mph - N/A   Partly Cloudy
8:30 PM 82.4 °F 87.2 °F 71.6 °F 70% 29.98 in 5.0 mi West 9.2 mph - N/A   Scattered Clouds
9:00 PM 84.2 °F 89.6 °F 71.6 °F 66% 30.01 in 5.0 mi West 6.9 mph - N/A   Scattered Clouds
9:30 PM 82.4 °F 87.2 °F 71.6 °F 70% 30.01 in 5.0 mi WNW 4.6 mph - N/A   Scattered Clouds
10:00 PM 84 °F - 73 °F 62% 29.96 in 6 mi Calm Calm - -   Mist
10:00 PM 82.4 °F 87.2 °F 71.6 °F 70% 30.01 in 5.0 mi Variable 2.3 mph - N/A   Scattered Clouds
10:30 PM 78.8 °F - 73.4 °F 83% 29.98 in 4.3 mi Variable 2.3 mph - N/A Rain Light Rain
11:00 PM 78.8 °F - 73.4 °F 83% 30.04 in 4.3 mi West 6.9 mph - N/A Rain Light Rain
11:30 PM 77.0 °F - 73.4 °F 89% 30.04 in 4.3 mi West 4.6 mph - N/A   Scattered Clouds